Flag for U.S.A. Weather past 2 weeks in Babylon, New York, U.S.A.

Now
74 °F

Sunny.


Feels Like: 77 °F
Forecast: 64 / 81 °F
Wind: 6 mph from North

Location: Republic Airport

Current Time: Jul 24, 2014 at 9:52:37 PM

Latest Report: Jul 24, 2014 at 8:53 PM


Visibility: 10 mi

Pressure: 29.88 "Hg

Humidity: 53%

Dew point: 56 °F

Location of BabylonLocation

Historic Weather in Babylon — Graph

°F

Babylon temperature yesterday

Maximum temperature yesterday: 82 °F (at 1:53 PM)
Minimum temperature yesterday: 70 °F (at 4:53 AM)
Average temperature yesterday: 77 °F

Past Weeks' High & Low Weather Summary

 TemperatureHumidityPressure
High83 °F (Jul 22, 12:53 PM)100% (Jul 14, 9:02 PM)30.24 "Hg (Jul 14, 9:02 PM)
Low62 °F (Jul 21, 5:53 AM)31% (Jul 18, 12:53 PM)29.75 "Hg (Jul 15, 5:53 PM)
Average73 °F74%30.04 "Hg
* Reported Jul 9 7:53 PM — Jul 24 7:53 PM, Babylon, Weather by CustomWeather, © 2014

Note: Actual official high and low records may vary slightly from our data, if they occured in-between our weather recording intervals... More about our weather records

Advertising

Babylon weather history for previous 24 hours

 ConditionsComfort  
Time TempWeatherWind HumidityBarometerVisibility
7:53 PM
Jul 24
76 °FSunny.7 mph50%29.85 "Hg10 mi
6:53 PM79 °FSunny.8 mph44%29.83 "Hg10 mi
5:53 PM78 °FSunny.10 mph48%29.83 "Hg10 mi
4:53 PM77 °FSunny.8 mph50%29.84 "Hg10 mi
3:53 PM78 °FSunny.7 mph50%29.84 "Hg10 mi
2:53 PM78 °FSunny.13 mph54%29.85 "Hg10 mi
1:53 PM77 °FPartly sunny.12 mph56%29.85 "Hg10 mi
12:53 PM76 °FPartly sunny.12 mph60%29.86 "Hg10 mi
11:53 AM77 °FScattered clouds.9 mph60%29.86 "Hg10 mi
10:53 AM75 °FMostly cloudy.12 mph62%29.86 "Hg10 mi
9:53 AM74 °FPartly sunny.13 mph71%29.85 "Hg10 mi
8:53 AM73 °FMostly cloudy.8 mph74%29.85 "Hg10 mi
7:53 AM73 °FPartly sunny.9 mph74%29.83 "Hg10 mi
6:53 AM72 °FSunny.9 mph78%29.82 "Hg10 mi
5:53 AM71 °FClear.6 mph87%29.81 "Hg10 mi
4:53 AM72 °FClear.3 mph84%29.80 "Hg10 mi
3:53 AM73 °FPassing clouds.7 mph84%29.79 "Hg10 mi
2:53 AM74 °FPartly cloudy.8 mph85%29.79 "Hg10 mi
1:53 AM75 °FPassing clouds.5 mph85%29.80 "Hg10 mi
12:53 AM76 °FClear.5 mph82%29.78 "Hg10 mi
11:53 PM
Jul 23
77 °FClear.No wind82%29.79 "Hg10 mi
10:53 PM76 °FPassing clouds.6 mph82%29.82 "Hg10 mi
9:53 PM76 °FPassing clouds.10 mph82%29.83 "Hg10 mi
Weather by CustomWeather, © 2014

See weather overviewHow to use our weather pages